Location: ???? ???? ?????
(31.2680°N, 31.7283°E)
Time: 04:09:25
(UTC+00:00)

USA 186 - Pass Details

Date: 13 July 2020
Orbit: 262 x 437 km, 96.9° (Epoch: 06 August)

Event Time Altitude Azimuth Distance (km) Brightness Sun altitude
Exits shadow 18:10:46 - 195° (SSW) 2,339 5.3 -13.9°
Reaches altitude 10° 18:12:59 10° 210° (SSW) 1,513 4.5 -14.3°
Maximum altitude 18:15:33 22° 263° (W) 979 4.2 -14.7°
Drops below altitude 10° 18:18:03 10° 315° (NW) 1,466 5.9 -15.1°
Sets 18:20:17 0° 332° (NNW) 2,296 6.8 -15.5°
